SL-14 DEB, 45291

Orbit data source: Space-Track

SL-14 DEB, 45291 is space debris in LEO originally from a launch on Thu, 15 Aug 1991 UTC launched from the Plesetsk Missile And Space Complex (PKMTR). Debris objects in space refer to the collection of defunct objects orbiting the Earth. Examples of debris include non-operational satellites, rocket bodies, and fragments generated from explosions, collisions, or faulty payload assembly.

Loading next visibility...
Identifier
45291, 1991-056AD
Orbit
LEO
Country
Flag of CISCIS
Related business
Manufacturer
Unknown
Mission
Spacecraft
Bus & Motor
Unknown
Mass
Unknown
Launch date (UTC)
1991-08-15 (34 years ago)
Launch vehicle
Unknown
Launch site
Plesetsk Missile And Space Complex (PKMTR)
Object type
Payload
Rocket body
Debris
Shape & HBR
Unknown shape, 0.1 m
Radar Cross Section
Small (<0.1 m²)

Expand to show TLE details & history
Last TLE update: 13 hours ago

TLE from 13 hours ago
0 SL-14 DEB
1 45291U 91056AD  26036.61442042 -.00000416  00000-0 -12130-2 0  9994
2 45291  82.5440 249.3399 0038920 282.6879  76.9890 13.10879847285337
Epoch: 2026-02-05T14:44Z
TLE epoch observation values (Epoch: 2026-02-05T14:44:45.924Z)
Latitude
-0.00003°
Longitude
-107.61557°
Altitude
1,216.006 km
Speed
7.249 km/s
True Right ascension
16h 37m 21s
True Declination
0° 00' 00"
Sunlit
Object was in daylight at epoch
Visualization orbit readout
Latitude
Unknown
Longitude
Unknown
Altitude
Unknown
Speed
Unknown
Apparent Right ascension
Unknown
Apparent Declination
Unknown
Sunlit
N/A
Visualization observer readout
Local Sidereal Time
05:49:45
Azimuth
Unknown
Elevation
Unknown
Doppler factor
Unknown
Orbital elements
Apogee altitude
1,246.571 km
Perigee altitude
1,187.451 km
Semi-major axis
7,595.148 km
Eccentricity
0.00389
Inclination
82.544°
RAAN
249.3399°
Arg. of periapsis
282.6879°
True anomaly
77.42401°
Mean anomaly
76.989°
Eccentric anomaly
77.20646°
Mean motion
3.27898 °/min
Orbital period
109.79 mins
BSTAR
-0.001213
Loading maneuver chart data...
Computing Atmospheric mass density...
Loading historical data...
Loading historical data...
Loading historical data...
Loading historical data...
Loading historical data...
Loading historical data...
Loading historical data...

Documentation

Showing up to 5 results
|